| time (UTC) | temp F | wind direction | speed MPH | gust MPH | rain 1hr in | rain 24hr in | rain mn in | humidity % | barometer mb |
| 20260507011000 | 40 | 182 | 0.0 | 2.0 | 0.00 | 0.00 | 0.00 | 80 | 1016.0 |
| 20260507010000 | 40 | 229 | 0.0 | 1.0 | 0.00 | 0.00 | 0.00 | 80 | 1016.0 |
| 20260507005000 | 40 | 229 | 2.0 | 4.0 | 0.00 | 0.00 | 0.00 | 81 | 1016.0 |
| 20260507004000 | 40 | 184 | 0.0 | 3.0 | 0.00 | 0.00 | 0.00 | 81 | 1016.0 |
| 20260507003000 | 40 | 107 | 0.0 | 1.0 | 0.00 | 0.00 | 0.00 | 80 | 1016.0 |
| 20260507002000 | 40 | 279 | 0.0 | 1.0 | 0.00 | 0.00 | 0.00 | 81 | 1016.0 |
| 20260507001000 | 40 | 16 | 1.0 | 2.0 | 0.00 | 0.00 | 0.00 | 81 | 1016.0 |
| 20260507000000 | 40 | 193 | 0.0 | 0.0 | 0.00 | 0.00 | 0.00 | 81 | 1016.0 |
| 20260506235000 | 40 | 317 | 0.0 | 1.0 | 0.00 | 0.00 | 0.00 | 81 | 1016.0 |
| 20260506234000 | 40 | 307 | 0.0 | 0.0 | 0.00 | 0.00 | 0.00 | 81 | 1016.0 |
| 20260506233000 | 40 | 71 | 0.0 | 3.0 | 0.00 | 0.00 | 0.00 | 81 | 1016.0 |
| 20260506232000 | 40 | 33 | 1.0 | 2.0 | 0.00 | 0.00 | 0.00 | 81 | 1016.0 |
| 20260506231000 | 40 | 356 | 2.0 | 2.0 | 0.00 | 0.00 | 0.00 | 81 | 1016.0 |
| 20260506230000 | 40 | 317 | 0.0 | 2.0 | 0.00 | 0.00 | 0.00 | 81 | 1016.0 |
| 20260506225000 | 40 | 302 | 0.0 | 2.0 | 0.00 | 0.00 | 0.00 | 81 | 1016.0 |
| 20260506224000 | 40 | 19 | 1.0 | 2.0 | 0.00 | 0.00 | 0.00 | 80 | 1016.0 |
| 20260506223000 | 41 | 3 | 0.0 | 0.0 | 0.00 | 0.00 | 0.00 | 81 | 1016.0 |
| 20260506222000 | 41 | 38 | 0.0 | 1.0 | 0.00 | 0.00 | 0.00 | 80 | 1016.0 |
| 20260506221001 | 41 | 247 | 0.0 | 0.0 | 0.00 | 0.00 | 0.00 | 80 | 1016.0 |
| 20260506220000 | 41 | 247 | 0.0 | 0.0 | 0.00 | 0.00 | 0.00 | 80 | 1016.0 |
| 20260506215000 | 41 | 114 | 1.0 | 2.0 | 0.00 | 0.00 | 0.00 | 80 | 1016.0 |
| 20260506214000 | 41 | 21 | 1.0 | 1.0 | 0.00 | 0.00 | 0.00 | 79 | 1016.0 |
| 20260506213002 | 41 | 247 | 0.0 | 1.0 | 0.00 | 0.00 | 0.00 | 79 | 1016.0 |
| 20260506212000 | 41 | 182 | 0.0 | 0.0 | 0.00 | 0.00 | 0.00 | 78 | 1016.0 |
| 20260506211000 | 41 | 205 | 0.0 | 0.0 | 0.00 | 0.00 | 0.00 | 79 | 1016.0 |
| 20260506210000 | 42 | 225 | 0.0 | 0.0 | 0.00 | 0.00 | 0.00 | 79 | 1016.0 |
| 20260506205000 | 42 | 150 | 0.0 | 0.0 | 0.00 | 0.00 | 0.00 | 77 | 1016.0 |
| 20260506204000 | 42 | 260 | 1.0 | 3.0 | 0.00 | 0.00 | 0.00 | 78 | 1016.0 |
| 20260506203000 | 42 | 19 | 2.0 | 3.0 | 0.00 | 0.00 | 0.00 | 77 | 1016.0 |
| 20260506202000 | 42 | 137 | 1.0 | 2.0 | 0.00 | 0.00 | 0.00 | 76 | 1016.0 |
| 20260506201000 | 43 | 22 | 2.0 | 3.0 | 0.00 | 0.00 | 0.00 | 77 | 1016.0 |
| 20260506200000 | 43 | 356 | 0.0 | 0.0 | 0.00 | 0.00 | 0.00 | 78 | 1016.0 |
| 20260506195000 | 43 | 156 | 0.0 | 2.0 | 0.00 | 0.00 | 0.00 | 77 | 1016.0 |
| 20260506194000 | 43 | 33 | 2.0 | 3.0 | 0.00 | 0.00 | 0.00 | 76 | 1016.0 |
| 20260506193000 | 43 | 166 | 0.0 | 2.0 | 0.00 | 0.00 | 0.00 | 77 | 1016.0 |
| 20260506192000 | 43 | 349 | 1.0 | 2.0 | 0.00 | 0.00 | 0.00 | 75 | 1016.0 |
| 20260506191000 | 43 | 253 | 0.0 | 2.0 | 0.00 | 0.00 | 0.00 | 75 | 1016.0 |
| 20260506190000 | 44 | 339 | 0.0 | 0.0 | 0.00 | 0.00 | 0.00 | 75 | 1016.0 |
| 20260506185000 | 44 | 170 | 0.0 | 0.0 | 0.00 | 0.00 | 0.00 | 72 | 1016.0 |
| 20260506184000 | 45 | 0 | 0.0 | 0.0 | 0.00 | 0.00 | 0.00 | 73 | 1016.0 |
| 20260506183000 | 45 | 0 | 0.0 | 0.0 | 0.00 | 0.00 | 0.00 | 72 | 1016.0 |
| 20260506182000 | 46 | 0 | 0.0 | 0.0 | 0.00 | 0.00 | 0.00 | 71 | 1016.0 |
| 20260506181000 | 46 | 0 | 0.0 | 0.0 | 0.00 | 0.00 | 0.00 | 69 | 1016.0 |
| 20260506180000 | 46 | 0 | 0.0 | 0.0 | 0.00 | 0.00 | 0.00 | 68 | 1016.0 |
| 20260506175000 | 47 | 0 | 0.0 | 0.0 | 0.00 | 0.00 | 0.00 | 66 | 1016.0 |
| 20260506174000 | 48 | 0 | 0.0 | 0.0 | 0.00 | 0.00 | 0.00 | 64 | 1016.0 |
| 20260506173000 | 49 | 0 | 0.0 | 0.0 | 0.00 | 0.00 | 0.00 | 64 | 1016.0 |
| 20260506172000 | 49 | 0 | 0.0 | 0.0 | 0.00 | 0.00 | 0.00 | 62 | 1016.0 |
| 20260506171000 | 50 | 0 | 0.0 | 0.0 | 0.00 | 0.00 | 0.00 | 60 | 1016.0 |
| 20260506170000 | 51 | 0 | 0.0 | 0.0 | 0.00 | 0.00 | 0.00 | 58 | 1016.0 |
| 20260506165000 | 52 | 0 | 0.0 | 0.0 | 0.00 | 0.00 | 0.00 | 57 | 1016.0 |
| 20260506164000 | 52 | 0 | 0.0 | 0.0 | 0.00 | 0.00 | 0.00 | 56 | 1016.0 |
| 20260506163000 | 53 | 0 | 0.0 | 0.0 | 0.00 | 0.00 | 0.00 | 55 | 1016.0 |
| 20260506162000 | 54 | 198 | 1.0 | 4.0 | 0.00 | 0.00 | 0.00 | 54 | 1016.0 |
| 20260506161000 | 54 | 193 | 0.0 | 5.0 | 0.00 | 0.00 | 0.00 | 54 | 1016.0 |
| 20260506160000 | 55 | 169 | 2.0 | 6.0 | 0.00 | 0.00 | 0.00 | 53 | 1016.0 |
| 20260506155000 | 55 | 176 | 2.0 | 5.0 | 0.00 | 0.00 | 0.00 | 53 | 1016.0 |
| 20260506154000 | 55 | 197 | 0.0 | 5.0 | 0.00 | 0.00 | 0.00 | 54 | 1016.0 |
| 20260506153000 | 56 | 193 | 3.0 | 5.0 | 0.00 | 0.00 | 0.00 | 55 | 1016.0 |
| 20260506152000 | 56 | 163 | 3.0 | 7.0 | 0.00 | 0.00 | 0.00 | 52 | 1016.0 |
| 20260506151000 | 56 | 159 | 3.0 | 9.0 | 0.00 | 0.00 | 0.00 | 54 | 1016.0 |
| 20260506150000 | 56 | 208 | 2.0 | 8.0 | 0.00 | 0.00 | 0.00 | 52 | 1016.0 |
| 20260506145000 | 56 | 176 | 2.0 | 7.0 | 0.00 | 0.00 | 0.00 | 52 | 1016.0 |
| 20260506144000 | 57 | 191 | 3.0 | 7.0 | 0.00 | 0.00 | 0.00 | 51 | 1016.0 |
| 20260506143000 | 57 | 133 | 3.0 | 8.0 | 0.00 | 0.00 | 0.00 | 50 | 1016.0 |
| 20260506142000 | 58 | 196 | 5.0 | 11.0 | 0.00 | 0.00 | 0.00 | 49 | 1016.0 |
| 20260506141000 | 58 | 168 | 3.0 | 11.0 | 0.00 | 0.00 | 0.00 | 49 | 1016.0 |
| 20260506140000 | 59 | 148 | 3.0 | 10.0 | 0.00 | 0.00 | 0.00 | 49 | 1017.0 |
| 20260506135000 | 59 | 185 | 2.0 | 5.0 | 0.00 | 0.00 | 0.00 | 51 | 1017.0 |
| 20260506134000 | 58 | 179 | 2.0 | 7.0 | 0.00 | 0.00 | 0.00 | 52 | 1017.0 |
| 20260506133000 | 58 | 201 | 3.0 | 8.0 | 0.00 | 0.00 | 0.00 | 52 | 1017.0 |
| 20260506132000 | 59 | 123 | 3.0 | 9.0 | 0.00 | 0.00 | 0.00 | 49 | 1017.0 |
| 20260506131000 | 58 | 186 | 2.0 | 8.0 | 0.00 | 0.00 | 0.00 | 52 | 1017.0 |
| 20260506130000 | 56 | 225 | 3.0 | 8.0 | 0.00 | 0.00 | 0.00 | 52 | 1017.0 |
| 20260506125000 | 57 | 193 | 5.0 | 9.0 | 0.00 | 0.00 | 0.00 | 54 | 1017.0 |
| 20260506124000 | 59 | 228 | 4.0 | 6.0 | 0.00 | 0.00 | 0.00 | 51 | 1017.0 |
| 20260506123000 | 58 | 133 | 5.0 | 7.0 | 0.00 | 0.00 | 0.00 | 49 | 1017.0 |
| 20260506122000 | 59 | 166 | 4.0 | 10.0 | 0.00 | 0.00 | 0.00 | 51 | 1017.0 |
| 20260506121000 | 59 | 88 | 3.0 | 8.0 | 0.00 | 0.00 | 0.00 | 50 | 1017.0 |
| 20260506120000 | 58 | 200 | 5.0 | 11.0 | 0.00 | 0.00 | 0.00 | 52 | 1017.0 |
| 20260506115000 | 59 | 117 | 5.0 | 12.0 | 0.00 | 0.00 | 0.00 | 50 | 1017.0 |
| 20260506114623 | 59 | 198 | 3.0 | 12.0 | 0.00 | 0.00 | 0.00 | 54 | 1017.0 |
| 20260506114000 | 57 | 190 | 3.0 | 9.0 | 0.00 | 0.00 | 0.00 | 53 | 1017.0 |
| 20260506113000 | 57 | 192 | 5.0 | 8.0 | 0.00 | 0.00 | 0.00 | 54 | 1017.0 |
| 20260506112000 | 57 | 143 | 2.0 | 7.0 | 0.00 | 0.00 | 0.00 | 55 | 1017.0 |
| 20260506111000 | 57 | 160 | 3.0 | 11.0 | 0.00 | 0.00 | 0.00 | 51 | 1017.0 |
| 20260506110000 | 56 | 186 | 2.0 | 9.0 | 0.00 | 0.00 | 0.00 | 57 | 1017.0 |
| 20260506105000 | 55 | 192 | 1.0 | 7.0 | 0.00 | 0.00 | 0.00 | 57 | 1017.0 |
| 20260506104000 | 56 | 236 | 3.0 | 6.0 | 0.00 | 0.00 | 0.00 | 58 | 1017.0 |
| 20260506103000 | 55 | 201 | 4.0 | 11.0 | 0.00 | 0.00 | 0.00 | 55 | 1017.0 |
| 20260506102000 | 55 | 190 | 1.0 | 9.0 | 0.00 | 0.00 | 0.00 | 56 | 1017.0 |
| 20260506101000 | 56 | 231 | 4.0 | 8.0 | 0.00 | 0.00 | 0.00 | 54 | 1017.0 |
| 20260506100000 | 56 | 190 | 3.0 | 9.0 | 0.00 | 0.00 | 0.00 | 57 | 1017.0 |
| 20260506095000 | 56 | 219 | 3.0 | 5.0 | 0.00 | 0.00 | 0.00 | 57 | 1017.0 |
| 20260506094000 | 55 | 179 | 4.0 | 6.0 | 0.00 | 0.00 | 0.00 | 58 | 1017.0 |
| 20260506093000 | 54 | 228 | 3.0 | 6.0 | 0.00 | 0.00 | 0.00 | 59 | 1017.0 |
| 20260506092000 | 54 | 234 | 2.0 | 6.0 | 0.00 | 0.00 | 0.00 | 56 | 1017.0 |
| 20260506091000 | 54 | 183 | 3.0 | 7.0 | 0.00 | 0.00 | 0.00 | 61 | 1017.0 |
| 20260506090000 | 54 | 245 | 4.0 | 5.0 | 0.00 | 0.00 | 0.00 | 61 | 1017.0 |
| 20260506085000 | 53 | 146 | 3.0 | 8.0 | 0.00 | 0.00 | 0.00 | 61 | 1017.0 |
| 20260506084000 | 54 | 206 | 2.0 | 7.0 | 0.00 | 0.00 | 0.00 | 59 | 1017.0 |
| 20260506083000 | 54 | 232 | 4.0 | 9.0 | 0.00 | 0.00 | 0.00 | 62 | 1017.0 |
| 20260506082000 | 54 | 174 | 4.0 | 7.0 | 0.00 | 0.00 | 0.00 | 62 | 1017.0 |
| 20260506081000 | 53 | 199 | 2.0 | 7.0 | 0.00 | 0.00 | 0.00 | 63 | 1017.0 |
| 20260506073000 | 52 | 220 | 1.0 | 5.0 | 0.00 | 0.00 | 0.00 | 61 | 1017.0 |
| 20260506072000 | 54 | 176 | 1.0 | 6.0 | 0.00 | 0.00 | 0.00 | 63 | 1017.0 |
| 20260506071000 | 53 | 186 | 3.0 | 6.0 | 0.00 | 0.00 | 0.00 | 65 | 1017.0 |
| 20260506062000 | 47 | 216 | 3.0 | 4.0 | 0.00 | 0.00 | 0.00 | 77 | 1016.0 |
| 20260506061000 | 46 | 190 | 1.0 | 3.0 | 0.00 | 0.00 | 0.00 | 78 | 1016.0 |
| 20260506051000 | 45 | 177 | 1.0 | 3.0 | 0.00 | 0.00 | 0.00 | 82 | 1012.0 |
| 20260506045000 | 44 | 232 | 0.0 | 3.0 | 0.00 | 0.00 | 0.00 | 84 | 1012.0 |
| 20260506044000 | 43 | 161 | 1.0 | 5.0 | 0.00 | 0.00 | 0.00 | 84 | 1012.0 |
| 20260506043000 | 43 | 170 | 2.0 | 5.0 | 0.00 | 0.00 | 0.00 | 84 | 1012.0 |
| 20260506042000 | 43 | 137 | 2.0 | 4.0 | 0.00 | 0.00 | 0.00 | 85 | 1012.0 |
| 20260506041000 | 43 | 164 | 2.0 | 4.0 | 0.00 | 0.00 | 0.00 | 85 | 1012.0 |
| 20260506040002 | 43 | 236 | 0.0 | 2.0 | 0.00 | 0.00 | 0.00 | 86 | 1012.0 |
| 20260506035000 | 42 | 220 | 0.0 | 1.0 | 0.00 | 0.00 | 0.00 | 86 | 1012.0 |
| 20260506034000 | 42 | 245 | 0.0 | 2.0 | 0.00 | 0.00 | 0.00 | 87 | 1012.0 |
| 20260506033000 | 42 | 176 | 0.0 | 2.0 | 0.00 | 0.00 | 0.00 | 87 | 1012.0 |
| 20260506032000 | 41 | 215 | 2.0 | 3.0 | 0.00 | 0.00 | 0.00 | 87 | 1012.0 |
| 20260506031000 | 41 | 143 | 2.0 | 6.0 | 0.00 | 0.00 | 0.00 | 88 | 1012.0 |
| 20260506030000 | 41 | 187 | 1.0 | 3.0 | 0.00 | 0.00 | 0.00 | 88 | 1012.0 |
| 20260506025000 | 41 | 182 | 1.0 | 3.0 | 0.00 | 0.00 | 0.00 | 87 | 1012.0 |
| 20260506024000 | 40 | 216 | 0.0 | 0.0 | 0.00 | 0.00 | 0.00 | 87 | 1012.0 |
| 20260506023000 | 40 | 190 | 0.0 | 2.0 | 0.00 | 0.00 | 0.00 | 87 | 1012.0 |
| 20260506022000 | 41 | 161 | 0.0 | 1.0 | 0.00 | 0.00 | 0.00 | 87 | 1012.0 |
| 20260506021000 | 41 | 203 | 0.0 | 0.0 | 0.00 | 0.00 | 0.00 | 87 | 1012.0 |
| 20260506020000 | 41 | 226 | 0.0 | 1.0 | 0.00 | 0.00 | 0.00 | 87 | 1012.0 |
| 20260506015000 | 41 | 95 | 1.0 | 5.0 | 0.00 | 0.00 | 0.00 | 87 | 1012.0 |
| 20260506014000 | 41 | 177 | 1.0 | 3.0 | 0.00 | 0.00 | 0.00 | 87 | 1012.0 |
| 20260506013000 | 41 | 147 | 2.0 | 4.0 | 0.00 | 0.00 | 0.00 | 86 | 1012.0 |
| 20260506012000 | 42 | 193 | 1.0 | 4.0 | 0.00 | 0.00 | 0.00 | 86 | 1012.0 |